Location: Cudham
(51.3000°N, 0.0667°E)
Time: 22:49:02
(UTC+00:00)

ACS3 Solar Sail - Pass Details

Date: 15 May 2026
Orbit: 881 x 950 km, 97.2° (Epoch: 6 June)

Event Time Altitude Azimuth Distance (km) Brightness Sun altitude
Rises 23:24:32 0° 23° (NNE) 3,502 5.7 -19.3°
Reaches altitude 10° 23:27:45 10° 42° (NE) 2,552 4.5 -19.4°
Maximum altitude 23:31:37 19° 85° (E) 2,004 3.4 -19.4°
Enters shadow 23:34:17 14° 118° (ESE) 2,276 3.4 -19.5°
